User: anonymous   Login
Location: Fort Wayne
(41.1310°N, 85.1290°W)
Time: 19:02:14
(UTC-05:00)
Language:

Cosmos 2056 Rocket - Orbit

View from above orbital plane
View from above orbital plane
View from above satellite
View from above satellite

Ground track
Ground track

The orbit data is extracted from the following two-line orbital elements,

1 20433U 90004B   18020.89225358 +.00000017 +00000-0 +14832-4 0  9998
2 20433 074.0376 316.4938 0040162 031.1878 001.1121 14.36014252466174
Epoch (UTC): 20 January 2018 21:24:50
Eccentricity: 0.0040162
inclination: 74.0376°
perigee height: 743 km
apogee height: 800 km
right ascension of ascending node: 316.4938°
argument of perigee: 31.1878°
revolutions per day: 14.36014252
mean anomaly at epoch: 1.1121°
orbit number at epoch: 46617

The dashed part of the orbit path shows where the satellite is in the earth's shadow,  

DLR